Zurück zum Katalog

COSMOS 1375 DEB

AktivLEO
NORAD 16203·DEBRIS·🇷🇺 Russia

Gestartet Jun 6, 1982 von Plesetsk Cosmodrome

Loading…

Nächste Überflüge (nächste 24 Stunden)

TLE

AktuellSource: Space-Track

Epoche: Sep 14, 2026, 07:49 UTC

1 16203U 82055E   26257.32571493 -.00000068  00000-0  12811-4 0  9990
2 16203  65.8364  29.2512 0075456 303.6588  77.4051 13.89203300243098

Verfolge COSMOS 1375 DEB in Echtzeit mit AllMySat

Download on the App Store